Saint Paul Island, AK

3:44 AM AKDT on August 19, 2017 (GMT -0800)
Saint Paul Island

Weather History for PASN - June, 2013

Change the Weather History Date:

Sunday, June 23, 2013

  Actual Average Record
Temperature  
Mean Temperature 44 °F 44 °F  
Max Temperature 49 °F 48 °F 54 °F (1951)
Min Temperature 38 °F 40 °F 30 °F (1973)
Degree Days  
Heating Degree Days 21 21  
Month to date heating degree days 556 537  
Since 1 June heating degree days 556 537  
Since 1 July heating degree days 11514 10666  
Cooling Degree Days 0 0  
Month to date cooling degree days 0 0  
Year to date cooling degree days 0 0  
Since 1 June cooling degree days 0 0  
Moisture  
Dew Point 40 °F    
Average Humidity 95    
Maximum Humidity 100    
Minimum Humidity 82    
Precipitation  
Precipitation 0.00 in 0.05 in 1.28 in (1996)
Month to date precipitation 1.19 1.00  
Year to date precipitation 8.37 7.16  
Snow  
Snow 0.00 in 0.00 in - ()
Month to date snowfall 0.0 0.0  
Since 1 June snowfall 0.0 0.0  
Since 1 July snowfall 72.7 59.8  
Snow Depth 0.00 in    
Sea Level Pressure  
Sea Level Pressure 29.57 in    
Wind  
Wind Speed 11 mph (North)    
Max Wind Speed 16 mph    
Max Gust Speed 20 mph    
Visibility 7 miles    
Events Fog    
T = Trace of Precipitation, MM = Missing Value Source: NWS Daily Summary

Daily Weather History Graph

Daily Weather History Graph

Search for Another Location

Airport or City:

Trip Planner

Search our weather history database for the weather conditions in past years. The results will help you decide how hot, cold, wet, or windy it might be!

Date:

Astronomy

Jun. 23, 2013 Rise Set
Actual Time 6:25 AM AKDT 12:21 AM AKDT
Civil Twilight 5:15 AM AKDT 1:30 AM AKDT
Nautical Twilight 3:55 AM AKDT 2:50 AM AKDT
Astronomical Twilight Sun does not set Sun does not set
Moon No Moon Rise 7:17 AM AKDT (6/23)
Length of Visible Light 20h 14m
Length of Day
17h 55m
Full, 100% of the Moon is Illuminated
Jun 23
Full
Jun 29
Last Quarter
Jul 7
New
Jul 15
First Quarter
Jul 22
Full

Hourly Weather History & Observations

Time (AKDT) Temp. Windchill Dew Point Humidity Pressure Visibility Wind Dir Wind Speed Gust Speed Precip Events Conditions
12:16 AM 39.2 °F 32.0 °F 39.2 °F 100% 29.33 in 4.0 mi NE 11.5 mph - N/A   Overcast
12:53 AM 39.9 °F 32.9 °F 39.0 °F 97% 29.36 in 5.0 mi NE 11.5 mph - N/A   Overcast
1:01 AM 39.2 °F 31.6 °F 39.2 °F 100% 29.35 in 5.0 mi NE 12.7 mph - N/A   Overcast
1:20 AM 39.2 °F 33.0 °F 39.2 °F 100% 29.37 in 5.0 mi NNE 9.2 mph - N/A   Overcast
1:53 AM 39.9 °F 32.5 °F 39.9 °F 100% 29.39 in 6.0 mi NE 12.7 mph - N/A   Overcast
2:14 AM 39.2 °F 32.0 °F 39.2 °F 100% 29.40 in 7.0 mi NE 11.5 mph - N/A   Overcast
2:27 AM 39.2 °F 31.2 °F 39.2 °F 100% 29.40 in 6.0 mi NE 13.8 mph - N/A   Overcast
2:53 AM 39.9 °F 35.1 °F 39.9 °F 100% 29.41 in 7.0 mi NNE 6.9 mph - N/A   Overcast
3:53 AM 39.0 °F 31.8 °F 39.0 °F 100% 29.43 in 9.0 mi NNE 11.5 mph - N/A   Overcast
4:04 AM 39.2 °F 32.5 °F 39.2 °F 100% 29.43 in 9.0 mi North 10.4 mph - N/A   Overcast
4:33 AM 39.2 °F 33.0 °F 37.4 °F 93% 29.43 in 9.0 mi North 9.2 mph - N/A   Overcast
4:53 AM 37.9 °F 31.5 °F 37.9 °F 100% 29.45 in 8.0 mi North 9.2 mph - N/A   Overcast
5:29 AM 37.4 °F 32.1 °F 37.4 °F 100% 29.46 in 8.0 mi North 6.9 mph - N/A   Overcast
5:53 AM 39.0 °F 34.0 °F 37.9 °F 96% 29.48 in 8.0 mi North 6.9 mph - N/A   Overcast
6:11 AM 39.2 °F 33.6 °F 37.4 °F 93% 29.49 in 9.0 mi North 8.1 mph - N/A   Overcast
6:51 AM 39.2 °F 35.0 °F 37.4 °F 93% 29.49 in 7.0 mi North 5.8 mph - N/A   Overcast
6:53 AM 39.0 °F 34.0 °F 37.9 °F 96% 29.50 in 7.0 mi North 6.9 mph - N/A   Overcast
7:14 AM 39.2 °F 32.0 °F 39.2 °F 100% 29.51 in 7.0 mi NNW 11.5 mph - N/A   Overcast
7:48 AM 39.2 °F 32.0 °F 39.2 °F 100% 29.51 in 6.0 mi North 11.5 mph - N/A   Overcast
7:53 AM 39.9 °F 32.9 °F 39.0 °F 97% 29.51 in 6.0 mi North 11.5 mph - N/A   Overcast
8:53 AM 39.9 °F 32.1 °F 39.0 °F 97% 29.54 in 6.0 mi NNW 13.8 mph - N/A   Overcast
9:12 AM 39.2 °F 31.6 °F 39.2 °F 100% 29.53 in 6.0 mi NNW 12.7 mph - N/A   Overcast
9:31 AM 39.2 °F 32.5 °F 39.2 °F 100% 29.54 in 6.0 mi North 10.4 mph - N/A   Overcast
9:42 AM 39.2 °F 32.0 °F 39.2 °F 100% 29.53 in 6.0 mi North 11.5 mph - N/A   Overcast
9:53 AM 39.9 °F 33.4 °F 39.0 °F 97% 29.55 in 6.0 mi North 10.4 mph - N/A   Overcast
10:19 AM 39.2 °F 32.5 °F 39.2 °F 100% 29.56 in 6.0 mi North 10.4 mph - N/A   Overcast
10:53 AM 41.0 °F 35.8 °F 39.9 °F 96% 29.57 in 6.0 mi North 8.1 mph - N/A   Overcast
11:12 AM 42.8 °F 36.6 °F 39.2 °F 87% 29.57 in 7.0 mi North 11.5 mph - N/A   Overcast
11:53 AM 42.1 °F 36.6 °F 41.0 °F 96% 29.59 in 8.0 mi North 9.2 mph - N/A   Overcast
12:53 PM 42.1 °F 35.7 °F 41.0 °F 96% 29.61 in 8.0 mi North 11.5 mph - N/A   Overcast
1:07 PM 41.0 °F 34.3 °F 41.0 °F 100% 29.61 in 1.8 mi NNW 11.5 mph - N/A   Overcast
1:21 PM 42.8 °F 37.0 °F 41.0 °F 93% 29.61 in 3.0 mi North 10.4 mph - N/A   Overcast
1:53 PM 43.0 °F 37.2 °F 41.0 °F 93% 29.63 in 9.0 mi North 10.4 mph - N/A   Overcast
2:28 PM 44.6 °F 38.4 °F 41.0 °F 87% 29.62 in 10.0 mi North 12.7 mph - N/A   Overcast
2:38 PM 46.4 °F 40.7 °F 42.8 °F 87% 29.63 in 10.0 mi North 12.7 mph - N/A   Overcast
2:53 PM 46.0 °F 39.3 °F 42.1 °F 86% 29.65 in 10.0 mi North 16.1 mph - N/A   Overcast
3:33 PM 44.6 °F 38.1 °F 42.8 °F 93% 29.65 in 10.0 mi NNE 13.8 mph - N/A   Overcast
3:53 PM 46.9 °F - 42.1 °F 83% 29.66 in 10.0 mi NNE 13.8 mph - N/A   Mostly Cloudy
4:28 PM 48.2 °F - 42.8 °F 82% 29.66 in 10.0 mi North 10.4 mph - N/A   Overcast
4:53 PM 46.0 °F 40.6 °F 42.1 °F 86% 29.66 in 10.0 mi NNE 11.5 mph - N/A   Overcast
5:53 PM 46.0 °F 41.4 °F 42.1 °F 86% 29.68 in 10.0 mi NE 9.2 mph - N/A   Overcast
6:00 PM 46.4 °F 41.1 °F 42.8 °F 87% 29.68 in 10.0 mi NNE 11.5 mph - N/A   Overcast
6:53 PM 44.1 °F 38.6 °F 42.1 °F 93% 29.69 in 9.0 mi NNE 10.4 mph - N/A   Overcast
7:53 PM 44.1 °F 39.0 °F 39.9 °F 85% 29.72 in 10.0 mi NNE 9.2 mph - N/A   Overcast
8:53 PM 43.0 °F 36.8 °F 39.9 °F 89% 29.72 in 10.0 mi North 11.5 mph - N/A   Overcast
9:38 PM 41.0 °F 34.3 °F 39.2 °F 93% 29.74 in 4.0 mi North 11.5 mph - N/A   Overcast
9:48 PM 41.0 °F 34.3 °F 39.2 °F 93% 29.74 in 2.5 mi North 11.5 mph - N/A   Overcast
9:53 PM 41.0 °F 34.3 °F 39.9 °F 96% 29.74 in 2.5 mi NNE 11.5 mph - N/A   Overcast
10:07 PM 39.2 °F 31.6 °F 39.2 °F 100% 29.74 in 1.8 mi North 12.7 mph - N/A   Overcast
10:14 PM 39.2 °F 32.0 °F 39.2 °F 100% 29.75 in 0.5 mi North 11.5 mph - N/A Fog Fog
10:53 PM 39.0 °F 31.8 °F 39.0 °F 100% 29.77 in 0.5 mi North 11.5 mph - N/A Fog Fog
11:53 PM 39.0 °F 31.8 °F 39.0 °F 100% 29.78 in 0.2 mi NNE 11.5 mph - N/A Fog Fog